Dewpoint
71 70 73 74 73 72 68 67 57 60 58 53 54 55 56 62 63 61 61 62 61 65 66 65 62 61 59 59 58 59 58 57 58 53 51 60 70 70 71 71 73 73 73 74 74 75 76 76 76 75 74 74 74 75 76 76 76 76 76 76 76 75 76 76 76 76 76 76 76 76 76 76 75 75 75 75 75 75 75 75 75 75 76 76 75 75 75 75 75 75 75 75 75 75 75 76 75
71 72 73 73 72 69 64 67 58 57 57 54 55 58 59 62 61 60 61 61 62 63 66 62 62 62 64 61 61 60 60 64 61 65 66 70 70 71 71 72 73 73 73 74 74 75 75 76 76 75 75 74 74 76 77 76 76 76 76 76 76 76 76 76 76 76 75 75 76 76 76 75 75 74 74 74 75 75 74 74 74 75 75 75 75 75 75 75 75 75 75 74 74 75 76 75 75
71 72 73 73 71 69 66 65 55 55 52 50 53 57 63 60 60 61 62 63 63 65 64 62 62 66 61 61 59 58 55 67 68 68 68 70 69 71 72 73 73 73 74 74 74 75 75 75 76 75 74 74 76 77 77 76 76 76 76 76 76 76 76 76 76 75 75 75 76 76 75 74 73 73 73 73 75 75 74 74 74 73 74 74 74 74 75 74 75 74 74 74 75 75 75 75 75
72 72 71 71 65 69 61 60 57 54 52 51 52 59 60 60 61 63 65 65 65 64 62 61 60 63 60 58 60 62 62 65 68 68 68 69 69 71 73 73 74 74 74 74 74 74 74 75 75 75 75 75 77 77 77 76 76 76 76 76 76 76 76 76 75 75 75 75 76 76 74 72 73 73 73 72 73 74 74 73 73 74 74 74 74 74 74 74 74 74 75 75 75 75 75 76 75
72 74 74 70 66 61 60 58 55 54 51 53 51 59 61 62 63 64 65 67 64 64 62 61 59 62 62 61 61 58 59 68 68 69 68 70 72 72 73 73 74 74 74 74 74 74 74 75 75 75 75 75 77 77 77 76 76 76 76 76 76 76 76 75 76 76 76 75 75 73 72 73 73 73 73 73 73 74 74 74 73 74 74 74 74 74 74 74 74 74 74 75 75 75 75 75 75
73 73 73 71 64 67 61 57 56 55 57 59 57 57 62 63 63 64 65 66 64 64 64 61 59 59 60 59 62 59 66 64 68 68 69 70 72 73 73 74 74 74 74 74 74 74 74 75 75 75 74 75 77 77 77 75 75 75 76 77 76 76 76 75 76 76 74 73 73 73 73 74 74 74 74 73 74 73 73 73 74 74 74 74 74 74 75 75 75 75 75 76 75 76 76 76 76
70 70 69 68 67 66 55 55 56 56 59 62 60 61 63 64 64 65 64 63 63 63 65 60 57 57 56 60 61 65 67 69 68 68 69 71 72 73 73 73 73 73 74 74 74 73 74 75 75 75 74 74 74 76 75 74 74 74 77 77 76 76 76 75 74 73 73 73 74 73 74 74 75 74 74 74 73 73 74 74 74 74 74 74 75 75 75 75 75 76 76 76 77 76 76 75 76
74 68 66 61 58 61 56 56 57 59 59 63 63 62 63 65 65 65 62 61 59 60 62 63 60 59 57 63 59 65 69 70 69 70 72 72 72 73 73 73 73 73 73 73 73 73 75 75 75 74 74 74 74 74 74 74 74 74 74 77 76 76 76 74 74 73 73 74 74 74 75 75 74 73 73 73 73 74 74 74 74 74 74 74 75 75 75 75 75 76 76 77 77 77 77 77 77
71 68 67 61 57 59 56 56 58 61 61 63 63 65 65 65 65 64 62 64 62 60 60 60 59 55 55 62 62 68 69 71 71 72 72 72 72 72 73 73 73 73 73 73 73 74 75 75 75 75 74 74 74 74 74 74 74 74 74 75 76 74 74 73 73 74 74 75 75 75 76 74 74 73 73 73 73 74 75 74 74 74 74 75 75 75 76 76 76 76 77 77 77 77 77 77 77
68 66 61 59 58 54 54 55 57 60 61 64 64 63 64 65 65 65 64 61 62 54 58 56 58 56 60 62 64 65 69 71 71 71 71 72 72 72 72 72 73 73 73 73 73 74 75 75 76 75 75 74 74 74 74 74 75 74 74 74 74 74 74 74 74 74 75 75 75 76 76 74 73 74 73 74 75 75 75 75 75 75 75 75 75 75 76 76 76 76 77 77 78 78 77 76 77
64 67 65 57 53 52 52 54 57 61 61 64 63 65 66 67 65 64 64 63 65 56 54 54 55 60 58 59 65 69 70 70 70 70 71 71 72 71 72 72 72 73 72 73 73 74 75 74 76 76 75 75 74 74 74 74 74 75 74 74 74 74 73 74 74 74 75 75 76 76 75 74 74 74 74 75 75 75 75 75 75 75 75 75 76 76 76 76 77 77 78 78 78 78 77 78 77
63 62 61 55 53 51 54 55 58 60 62 63 62 64 67 66 65 63 64 62 57 53 55 54 55 60 60 61 66 69 69 70 70 70 71 71 71 71 71 72 72 72 73 73 73 74 75 75 75 76 75 74 74 74 74 75 74 75 75 74 74 74 74 74 74 74 75 75 75 76 74 74 74 74 74 75 75 75 75 75 76 76 76 76 76 76 77 77 77 78 78 78 78 78 78 78 78
64 61 58 57 57 58 57 56 57 59 60 62 63 65 68 66 64 64 65 65 54 53 54 59 57 62 59 61 67 69 69 69 70 70 70 70 70 70 71 72 72 72 73 73 73 74 74 75 75 76 75 74 74 75 74 75 75 74 74 74 74 74 74 74 74 74 75 75 74 74 74 74 75 74 75 75 75 75 76 76 76 76 76 76 77 77 77 78 78 78 78 78 78 79 79 78 79
64 62 60 55 58 58 57 56 57 56 56 63 66 66 67 66 67 67 64 60 58 55 57 58 60 64 63 65 66 67 68 69 70 70 70 69 70 70 71 71 71 72 73 73 73 74 74 75 76 76 74 74 74 74 74 74 74 74 74 74 74 74 74 74 74 75 74 74 74 74 74 75 75 75 75 75 76 76 76 76 77 77 77 77 77 78 78 78 78 79 79 79 79 79 79 79 79
65 65 62 58 57 56 58 55 56 56 56 63 65 65 65 66 67 67 65 61 61 64 57 62 65 59 58 63 63 66 68 69 69 70 69 69 69 70 70 71 71 72 73 73 73 74 74 74 75 74 75 73 73 74 74 74 74 74 74 74 74 74 74 74 74 74 75 75 75 75 75 75 75 76 76 76 76 76 77 77 77 77 77 78 78 78 78 78 78 79 79 79 79 79 79 79 79
66 65 60 56 55 55 56 57 59 56 57 64 66 66 65 65 69 66 67 67 64 65 57 58 59 62 62 63 64 67 69 69 69 68 68 69 69 70 71 71 72 72 73 73 73 73 74 74 74 74 73 73 73 73 74 74 74 74 74 74 74 74 74 74 75 75 75 75 75 75 75 76 76 76 76 76 77 77 77 77 77 77 78 78 78 78 78 78 79 79 79 80 79 79 79 79 79
67 65 57 56 55 57 57 55 57 54 61 64 66 65 61 62 68 68 71 69 65 58 67 64 61 61 64 64 67 68 68 69 69 68 68 68 69 70 70 71 71 72 72 73 73 73 74 74 73 73 73 73 73 73 73 74 74 74 74 74 74 75 75 75 75 75 75 75 75 75 76 75 76 76 76 75 77 76 77 78 79 78 78 78 78 79 79 79 79 80 80 80 80 80 80 80 80
65 61 57 53 57 58 59 56 57 58 59 62 64 64 64 60 65 69 70 67 68 65 65 62 62 64 66 66 68 68 68 68 68 68 68 68 69 69 69 70 71 70 71 72 73 73 73 73 73 73 73 73 73 73 74 74 74 76 74 74 75 75 74 75 75 75 75 76 75 75 75 76 76 76 76 77 76 77 76 77 77 78 78 78 79 79 79 80 80 80 80 80 80 80 80 80 80
62 58 55 54 56 57 60 59 59 60 59 62 64 64 64 62 65 65 63 62 63 61 62 60 61 63 65 66 67 67 68 68 68 68 68 68 68 68 68 69 70 70 71 71 72 72 73 73 73 73 73 73 73 73 74 73 73 73 74 74 74 75 76 76 75 76 76 75 75 75 76 75 75 76 76 76 77 78 77 78 78 78 78 78 79 79 79 80 80 81 81 81 81 81 80 80 80
64 60 56 55 57 60 62 61 61 62 62 62 62 64 65 64 65 67 63 62 63 59 58 58 61 63 64 65 66 67 68 68 68 68 68 68 68 67 67 68 69 69 70 71 71 72 73 73 73 73 73 73 72 73 73 73 73 73 73 74 74 74 74 75 75 74 74 74 74 74 74 74 75 75 76 77 77 76 76 77 78 80 80 80 80 79 79 80 81 81 81 81 81 80 80 80 80
62 60 58 57 60 59 62 63 62 64 63 63 62 65 64 64 66 66 65 60 60 61 60 58 60 63 64 64 66 67 67 68 68 68 68 68 67 67 67 68 68 69 69 71 71 71 72 73 73 73 73 73 72 73 73 73 73 73 73 73 73 73 73 74 74 74 74 74 74 74 74 74 75 74 74 74 74 75 75 75 75 76 77 77 78 78 78 78 79 78 78 78 78 77 77 77 77
63 61 61 59 61 58 63 63 65 64 64 63 64 63 63 66 65 65 64 58 57 61 62 61 62 64 63 64 66 67 67 67 67 67 67 67 67 67 67 67 67 68 70 70 71 71 71 72 73 73 73 73 73 73 73 74 74 73 73 73 73 73 73 73 73 73 73 74 74 74 75 74 74 74 74 74 74 75 75 75 75 74 74 74 75 74 73 75 75 75 76 76 76 76 76 76 76
58 58 61 61 61 60 65 65 64 64 63 63 63 63 65 64 64 65 64 60 61 66 67 62 62 64 64 64 66 67 67 67 67 67 67 67 67 67 67 67 67 67 69 69 70 71 72 72 73 73 73 73 73 73 73 74 74 73 73 73 73 73 73 73 73 73 73 73 73 74 74 74 73 73 73 74 74 75 74 74 74 73 73 73 73 73 73 74 75 75 76 76 75 74 73 73 74
58 55 59 62 64 63 66 65 64 63 63 63 64 64 62 64 59 64 63 65 67 68 69 60 62 63 63 64 66 66 66 67 67 67 68 67 68 67 68 68 67 67 68 69 70 71 72 72 73 73 72 73 72 73 73 73 73 73 73 74 74 74 74 73 73 73 74 74 74 74 74 74 73 72 72 73 74 74 74 74 73 72 72 72 73 73 73 73 74 74 75 74 73 71 69 69 69
59 57 60 62 64 65 66 64 64 64 64 65 64 62 62 64 61 64 63 64 67 67 66 58 62 63 62 63 66 67 66 66 67 67 68 68 68 68 68 68 67 67 67 68 69 70 71 72 72 72 72 73 72 73 72 73 73 73 73 73 73 75 74 74 73 73 73 74 74 74 74 73 73 72 72 73 74 74 73 73 72 71 71 71 72 72 73 73 73 72 72 71 71 71 70 69 69
59 58 62 63 64 65 65 64 64 64 64 65 62 61 63 64 64 62 62 64 67 68 65 60 61 60 62 62 64 67 66 67 67 67 67 68 68 68 68 67 67 66 67 67 68 69 70 71 72 72 72 72 72 72 72 73 73 73 73 73 73 74 74 74 74 73 73 73 73 73 73 73 72 72 72 73 73 73 72 71 71 70 70 70 70 70 71 71 71 70 69 69 68 70 70 69 73
59 58 63 64 65 65 65 63 64 65 65 64 60 60 62 65 62 58 61 65 67 67 65 60 59 59 60 62 63 66 66 67 67 67 68 68 68 68 67 67 66 66 66 66 67 68 69 71 71 72 72 73 72 72 72 72 73 73 73 73 73 73 73 74 74 74 73 73 73 73 73 73 73 72 73 73 73 73 72 71 69 69 68 68 69 68 69 69 68 68 67 68 69 70 70 70 70
58 60 61 62 64 65 64 63 64 64 62 65 62 61 64 65 63 61 62 65 66 65 65 61 58 58 58 60 61 63 65 67 67 67 67 67 67 67 67 66 66 66 65 64 65 66 68 69 70 71 72 72 73 72 72 72 73 73 73 73 73 73 73 73 74 73 73 73 73 73 73 73 74 73 74 74 74 73 71 70 68 68 67 68 69 67 67 68 69 68 68 69 70 72 71 71 71
58 56 55 59 61 60 63 61 63 64 61 64 65 60 59 62 61 62 65 65 65 65 65 63 59 59 60 62 63 62 61 63 66 66 66 67 67 67 67 67 66 66 65 64 64 65 66 68 69 70 71 72 72 72 72 72 72 73 73 72 72 72 73 73 72 72 73 73 73 74 74 74 75 74 74 74 75 73 71 70 68 68 67 67 67 67 67 69 69 68 69 70 71 72 71 71 70
57 59 58 57 57 56 60 64 64 63 62 64 63 52 54 59 62 63 65 65 65 65 64 64 63 63 64 64 65 65 65 64 62 65 66 66 66 66 66 66 67 66 66 65 63 64 65 66 68 69 71 71 72 71 71 71 72 72 73 72 73 72 71 71 72 72 73 73 74 74 74 74 75 75 74 74 74 73 72 70 68 67 67 67 68 68 67 67 67 67 66 69 71 73 71 71 71
55 56 57 55 53 53 59 62 63 61 64 64 60 53 53 56 60 64 65 65 64 63 64 64 64 64 65 65 65 65 67 66 62 62 64 65 64 64 65 65 66 66 66 65 64 63 65 66 68 68 70 70 71 71 71 70 71 72 73 73 73 72 72 71 71 72 72 73 74 74 74 74 75 74 74 74 74 73 72 71 69 68 68 69 67 68 67 67 68 68 69 67 67 68 68 70 70
55 53 51 52 52 53 57 65 61 58 62 64 59 53 55 55 57 63 65 65 63 62 63 64 64 64 65 65 65 65 65 67 67 65 63 63 62 62 63 63 64 65 65 65 65 65 65 65 68 67 68 68 68 70 70 70 70 72 73 75 74 74 73 72 72 72 72 73 74 74 74 74 74 74 74 74 73 73 72 71 70 70 69 69 68 68 69 68 67 67 68 67 68 67 69 68 69
51 51 49 51 51 53 54 61 62 61 63 63 58 54 54 54 59 63 65 64 63 62 62 63 64 64 64 64 64 64 65 65 67 67 66 66 65 63 61 62 62 64 64 64 65 65 65 65 68 68 67 67 67 67 69 70 71 72 73 74 74 74 73 72 72 71 71 72 72 72 72 72 73 73 74 74 74 73 72 71 70 69 69 69 68 68 68 69 67 65 70 72 70 70 68 67 67
50 49 48 51 52 52 51 56 61 61 61 59 61 56 55 56 59 63 64 64 62 61 62 63 63 64 64 64 64 64 64 64 64 66 67 67 66 66 64 65 61 62 63 64 64 64 64 64 66 68 67 67 67 67 68 69 70 72 72 73 74 73 72 71 71 71 70 70 70 70 71 71 72 71 72 72 73 72 72 71 70 69 69 69 69 68 68 68 70 70 70 72 71 71 70 68 67
49 49 47 46 50 53 51 53 56 60 60 59 59 57 57 57 59 62 64 64 62 61 62 62 63 63 64 64 64 64 64 64 64 64 66 68 68 67 67 67 65 61 60 62 63 64 64 64 65 67 68 67 67 68 69 70 70 71 71 71 71 72 72 71 70 70 70 70 69 69 71 70 71 70 70 71 71 71 71 71 70 70 70 70 70 69 70 70 71 71 70 71 72 71 70 69 68
49 50 48 47 48 49 50 52 57 59 58 57 58 57 57 58 57 60 63 64 62 62 62 62 63 63 63 63 64 64 64 64 64 66 67 67 67 68 67 67 67 66 62 60 62 62 63 63 64 65 67 67 67 68 69 70 70 70 69 69 69 70 70 71 70 69 69 69 69 69 70 70 70 71 70 70 70 71 70 70 70 70 71 71 70 70 70 71 71 72 72 70 71 70 72 71 70
46 49 48 46 46 47 49 52 56 60 57 56 57 57 57 56 56 58 61 63 62 61 61 62 62 63 63 63 63 63 64 63 66 67 66 66 67 67 67 67 67 66 65 61 59 59 60 62 63 64 65 67 67 67 68 68 68 69 69 68 68 68 69 69 69 69 68 68 68 68 69 69 70 70 71 70 70 71 71 71 71 71 71 72 71 70 70 70 71 72 72 74 71 70 69 69 70
38 43 46 45 46 45 48 50 57 59 55 54 56 56 56 56 55 57 60 61 61 61 60 61 62 63 63 63 63 63 63 65 65 64 65 66 66 67 68 69 71 67 66 64 60 59 59 59 61 62 63 65 66 66 67 67 68 68 67 67 67 67 68 69 69 69 69 68 69 69 69 68 69 69 70 70 70 69 69 70 71 70 71 72 72 72 71 74 73 73 71 71 71 70 70 69 68
32 37 42 44 44 47 43 52 58 59 56 54 56 55 55 55 54 57 59 60 61 61 61 61 62 62 62 63 63 63 63 63 63 64 65 66 67 69 69 70 69 66 65 65 62 60 59 59 61 62 63 63 65 66 67 67 67 68 67 66 66 66 67 68 69 69 70 69 69 69 69 69 69 68 68 70 69 68 68 69 69 70 71 72 72 72 72 73 73 72 72 71 71 70 70 70 70
30 34 42 39 42 43 42 46 58 58 55 52 55 54 54 54 55 56 58 59 60 60 60 60 62 62 62 62 62 62 62 62 62 63 64 66 67 68 69 69 69 67 68 66 64 60 59 61 60 61 62 63 64 65 69 67 67 68 69 68 69 67 67 71 69 70 69 69 69 68 68 68 68 67 67 67 68 69 71 72 71 70 70 72 72 72 72 72 73 73 72 72 71 69 68 69 71
27 34 35 36 42 42 41 44 56 54 49 54 53 50 50 51 51 52 56 60 60 60 60 60 61 62 62 63 63 62 62 62 62 62 64 66 67 67 68 69 69 68 66 65 66 65 61 59 60 61 61 62 63 66 67 68 69 69 69 70 71 72 70 71 71 69 69 69 69 68 67 68 67 66 66 66 68 72 73 72 71 70 70 72 73 72 72 71 72 72 72 72 71 70 69 68 69
17 26 36 36 40 44 52 54 53 51 51 51 49 43 44 48 50 51 54 56 57 59 59 59 59 61 62 62 62 63 63 63 63 63 64 66 67 68 69 69 69 69 67 65 65 67 67 65 63 62 62 62 61 63 66 68 69 68 68 67 67 66 66 66 66 65 67 68 68 69 69 70 70 70 69 69 69 74 72 73 72 71 71 72 73 73 72 72 72 72 72 72 71 71 70 69 67
22 19 33 37 43 45 52 52 48 45 44 51 49 44 42 45 47 50 53 54 55 58 58 58 59 60 62 62 63 63 63 64 65 65 65 66 67 67 68 68 68 68 68 68 67 66 68 69 69 67 65 64 63 63 66 69 67 67 67 65 65 65 65 65 66 66 66 68 69 70 70 71 72 72 73 72 72 74 73 73 73 73 72 72 73 74 73 72 72 72 73 72 71 71 71 69 68
21 26 39 43 42 46 50 49 44 46 48 45 48 46 42 42 44 48 52 53 54 55 57 58 59 60 61 62 62 63 64 64 64 64 65 66 66 66 66 67 68 68 69 69 68 67 67 69 70 71 71 71 68 66 65 68 67 67 66 66 65 65 64 64 66 67 67 70 71 70 71 72 73 73 74 73 74 74 74 73 73 73 73 72 74 73 73 73 73 72 73 73 72 72 71 70 69
18 18 42 42 41 43 48 46 38 36 40 39 45 43 43 42 43 50 53 51 52 53 54 56 58 60 61 61 62 63 64 64 65 65 65 65 66 66 66 66 67 68 69 69 69 68 67 67 70 71 71 72 73 71 68 68 69 67 67 66 66 67 66 66 68 70 70 71 70 70 71 71 72 74 73 72 72 74 75 74 74 73 73 73 74 73 72 72 72 72 73 73 73 72 71 71 71
14 26 33 35 38 42 45 39 35 39 38 37 42 42 42 41 42 48 52 51 50 51 53 55 57 59 60 61 62 63 64 65 65 65 65 66 66 66 66 67 68 68 69 70 69 70 69 68 69 71 70 71 72 72 72 70 69 70 68 67 67 66 68 69 70 69 70 72 71 72 72 73 72 73 73 69 70 70 72 74 74 74 73 73 75 73 72 71 71 72 72 72 72 72 71 71 70
17 25 27 27 28 31 38 35 34 35 33 36 40 41 40 35 40 45 48 49 49 50 53 56 57 59 60 61 61 62 63 64 65 65 65 65 66 66 65 65 66 67 69 69 70 69 69 68 68 70 70 71 72 73 72 71 71 70 69 68 68 67 67 68 69 70 71 72 72 71 72 72 73 73 75 74 71 72 73 73 72 71 72 73 74 73 72 72 71 71 71 72 72 72 71 71 71
16 17 23 25 26 29 27 31 33 32 29 33 40 40 39 36 37 42 49 51 52 51 51 53 56 57 59 60 61 61 62 64 64 64 64 64 64 64 65 65 65 66 67 68 68 69 69 69 69 69 69 70 71 72 73 73 72 72 71 70 70 69 69 69 70 70 71 71 71 72 72 73 73 73 73 74 74 73 73 73 74 74 73 73 73 73 73 73 72 71 71 72 72 72 72 72 70
19 19 20 17 19 28 24 26 28 27 29 27 29 40 39 38 37 43 48 49 50 54 52 53 54 56 58 60 61 61 62 63 63 63 63 63 63 63 64 65 67 67 66 66 67 67 68 68 69 68 69 70 70 72 72 73 73 73 73 73 72 72 72 72 71 71 72 72 72 72 72 72 73 73 73 72 73 73 73 73 73 72 73 73 74 74 73 73 72 72 71 71 71 72 71 71 70
14 15 19 16 17 19 19 24 24 23 24 25 36 40 38 39 37 40 41 44 48 52 54 54 55 56 58 59 60 61 61 62 62 62 62 63 63 63 64 65 65 66 65 65 66 69 68 68 68 68 68 68 70 70 72 72 72 73 73 73 73 74 73 73 73 72 72 73 73 73 73 73 73 73 72 73 73 73 74 74 74 73 73 73 74 73 72 73 73 72 72 73 72 72 73 72 72
12 17 14 16 20 18 17 23 20 21 26 29 34 36 35 34 38 46 47 48 48 50 54 56 57 58 59 60 60 60 61 61 61 61 62 62 63 64 64 65 65 65 65 65 66 68 68 67 67 70 69 68 67 68 70 71 73 74 73 73 74 74 74 74 74 74 74 74 74 73 74 73 73 73 73 73 74 74 74 74 73 73 73 74 74 74 72 72 72 72 71 73 73 74 74 73 72
19 17 16 15 15 26 14 22 20 22 31 35 36 34 38 36 43 51 52 50 51 53 55 57 56 58 59 59 60 60 60 60 60 61 62 63 64 64 65 65 65 65 66 66 65 65 65 66 66 67 68 70 71 71 71 72 73 74 74 74 74 75 75 75 74 74 74 74 73 73 73 73 73 73 74 74 74 74 74 74 74 73 74 74 74 74 74 73 73 71 70 71 71 72 72 71 70
19 15 16 16 21 29 32 41 28 25 24 32 38 38 40 43 42 47 52 52 53 54 55 55 56 57 58 58 59 59 59 59 60 61 62 63 64 65 65 65 65 65 66 65 64 65 66 68 67 68 68 69 70 70 69 70 70 69 69 70 71 71 71 71 71 72 73 73 73 73 73 73 73 73 73 74 74 74 74 74 74 73 74 74 74 74 75 74 74 71 70 70 71 72 73 71 70
15 15 14 22 23 21 18 14 20 21 13 21 38 39 40 37 33 47 49 51 52 54 54 54 55 56 57 57 58 59 59 59 60 61 62 63 64 64 63 62 62 63 63 64 66 66 67 67 67 67 67 67 68 69 69 69 70 70 70 70 70 70 69 69 70 70 71 71 71 72 72 72 72 72 73 73 74 74 74 74 74 74 73 74 73 73 73 73 75 72 71 70 71 72 72 71 70
16 15 20 14 20 15 22 15 13 13 14 23 36 40 42 40 39 44 46 50 51 53 55 54 55 55 56 57 58 58 59 60 60 61 62 62 61 61 61 61 62 63 65 65 66 67 67 66 66 66 66 66 67 68 69 70 69 68 68 69 69 69 69 70 70 70 71 71 70 71 71 71 71 72 74 74 74 74 74 73 73 73 73 73 73 73 74 74 75 73 72 71 71 71 71 70 71
21 18 16 26 21 24 16 14 20 15 13 22 23 36 35 42 42 45 45 50 51 53 54 54 54 55 55 56 57 57 58 58 59 59 60 60 59 60 60 61 62 63 64 66 66 67 66 66 68 66 66 67 67 67 69 68 68 68 68 69 69 69 70 70 70 70 70 70 70 70 70 71 71 72 73 73 73 73 73 73 73 73 73 73 72 73 73 73 75 74 73 72 71 71 71 70 70
18 17 18 21 23 25 16 22 19 16 24 26 27 28 35 40 43 46 47 49 52 53 53 54 55 55 55 56 56 57 58 57 58 58 59 58 58 59 60 61 63 64 66 66 66 66 65 67 67 68 66 66 66 66 67 67 67 67 68 67 68 68 68 69 69 69 70 69 70 71 71 71 72 72 73 73 72 72 73 73 73 73 73 73 73 73 73 74 73 73 72 72 71 71 71 70 71
18 16 16 16 14 17 16 17 23 29 28 28 29 28 35 40 47 47 47 50 52 53 54 54 55 55 55 55 56 57 57 57 57 58 58 58 59 60 61 63 64 64 65 65 65 66 65 66 66 66 66 65 65 64 65 65 66 66 66 67 67 68 68 68 68 69 69 69 70 70 71 72 72 72 72 71 72 72 73 73 73 73 73 73 73 74 74 74 74 74 73 72 71 71 71 71 71